GW4192 Weather Reports


time (UTC)temp
C
wind
direction
speed
KPH
gust
KPH
rain 1hr
cm
rain 24hr
cm
rain mn
cm
humidity
%
barometer
mb
20260505230039 8 268 29.0 57.9 0.03 0.23 0.23 97 1006.7
20260505224533 8 245 41.8 64.4 0.08 0.23 0.23 97 1006.2
20260505223036 8 245 38.6 61.2 0.10 0.23 0.23 96 1006.3
20260505221532 8 245 38.6 57.9 0.18 0.20 0.20 96 1005.9
20260505220032 8 232 37.0 54.7 0.20 0.20 0.20 96 1006.4
20260505214530 9 245 43.5 59.5 0.15 0.15 0.15 96 1006.7
20260505213034 10 245 41.8 59.5 0.13 0.13 0.13 94 1006.0
20260505211535 12 273 33.8 48.3 0.03 0.03 0.03 81 1005.5
20260505210034 16 245 22.5 37.0 0.00 0.00 0.00 54 1004.8
20260505204533 16 245 24.1 48.3 0.00 0.00 0.00 54 1004.8
20260505203036 16 169 27.4 41.8 0.00 0.00 0.00 56 1004.5
20260505201537 15 162 32.2 46.7 0.00 0.00 0.00 56 1004.3
20260505200032 15 245 24.1 43.5 0.00 0.00 0.00 58 1004.5
20260505194532 15 245 29.0 46.7 0.00 0.00 0.00 58 1004.5
20260505193030 16 166 27.4 43.5 0.00 0.00 0.00 57 1004.6
20260505191529 16 245 25.7 43.5 0.00 0.00 0.00 56 1004.6
20260505190036 17 152 20.9 45.1 0.00 0.00 0.00 55 1005.2
20260505184530 17 156 22.5 38.6 0.00 0.00 0.00 53 1005.3
20260505183042 16 166 16.1 33.8 0.00 0.00 0.00 58 1005.5
20260505181534 15 157 22.5 37.0 0.00 0.00 0.00 58 1005.5
20260505180034 15 171 29.0 40.2 0.00 0.00 0.00 59 1005.5
20260505174531 15 245 30.6 45.1 0.00 0.00 0.00 59 1005.6
20260505173039 15 172 22.5 49.9 0.00 0.00 0.00 60 1005.9
20260505171542 15 170 27.4 41.8 0.00 0.00 0.00 59 1006.0
20260505170030 15 245 29.0 40.2 0.00 0.00 0.00 61 1006.0
20260505164532 14 165 25.7 38.6 0.00 0.00 0.00 64 1006.3
20260505163032 13 163 22.5 40.2 0.00 0.00 0.00 67 1006.7
20260505161530 13 135 22.5 40.2 0.00 0.00 0.00 67 1006.8
20260505153034 12 245 27.4 45.1 0.00 0.00 0.00 68 1007.0
20260505151536 11 157 24.1 38.6 0.00 0.00 0.00 70 1007.0
20260505124530 10 245 27.4 40.2 0.00 0.00 0.00 67 1006.4
20260505123032 10 156 30.6 43.5 0.00 0.00 0.00 68 1006.6
20260505121537 10 152 29.0 43.5 0.00 0.00 0.00 69 1006.8
20260505120055 9 245 27.4 45.1 0.00 0.00 0.00 69 1007.0
20260505114530 9 245 29.0 43.5 0.00 0.00 0.00 69 1007.0
20260505113029 8 183 25.7 46.7 0.00 0.00 0.00 70 1007.2
20260505111531 8 245 25.7 40.2 0.00 0.00 0.00 70 1007.3
20260505101530 8 187 25.7 43.5 0.00 0.00 0.00 70 1007.0
20260505100032 8 181 25.7 40.2 0.00 0.00 0.00 69 1006.9
20260505094532 8 203 24.1 41.8 0.00 0.00 0.00 69 1007.0
20260505093037 8 188 30.6 43.5 0.00 0.00 0.00 68 1007.0
20260505091531 8 245 30.6 46.7 0.00 0.00 0.00 67 1006.9
20260505090041 8 245 33.8 49.9 0.00 0.00 0.00 66 1006.9
20260505084532 8 174 32.2 48.3 0.00 0.00 0.00 66 1007.0
20260505083030 8 203 30.6 54.7 0.00 0.00 0.00 65 1007.0
20260505081536 8 193 32.2 51.5 0.00 0.00 0.00 64 1006.9
20260505080037 8 187 29.0 48.3 0.00 0.00 0.00 64 1007.0
20260505074530 8 245 27.4 43.5 0.00 0.00 0.00 64 1007.2
20260505073045 8 179 25.7 46.7 0.00 0.00 0.00 65 1007.2
20260505071531 7 147 29.0 38.6 0.00 0.00 0.00 66 1007.1
20260505070030 7 159 27.4 40.2 0.00 0.00 0.00 67 1007.1
20260505064540 7 163 29.0 38.6 0.00 0.00 0.00 68 1007.2
20260505063031 7 152 27.4 40.2 0.00 0.00 0.00 68 1007.2
20260505061545 7 181 27.4 40.2 0.00 0.00 0.00 66 1007.2
20260505060033 7 148 27.4 40.2 0.00 0.00 0.00 67 1007.1
20260505054552 7 245 24.1 33.8 0.00 0.00 0.00 67 1007.2
20260505053034 8 187 27.4 40.2 0.00 0.00 0.00 66 1007.2
20260505051534 8 188 25.7 40.2 0.00 0.00 0.00 66 1007.2
20260505041532 7 181 20.9 33.8 0.00 0.00 0.00 67 1007.1
20260505040032 7 183 20.9 32.2 0.00 0.00 0.00 66 1007.0
20260505034532 7 194 19.3 29.0 0.00 0.00 0.00 67 1007.0
20260505033033 7 245 20.9 32.2 0.00 0.00 0.00 67 1006.9
20260505031542 7 188 19.3 29.0 0.00 0.00 0.00 68 1007.0
20260505030033 7 245 19.3 29.0 0.00 0.00 0.00 70 1007.0
20260505024538 7 180 17.7 27.4 0.00 0.00 0.00 71 1007.2
20260505023034 7 245 17.7 27.4 0.00 0.00 0.00 71 1007.2
20260505021533 7 245 17.7 24.1 0.00 0.00 0.00 72 1007.4
20260505020034 7 205 16.1 32.2 0.00 0.00 0.00 72 1007.3
20260505014536 7 189 17.7 29.0 0.00 0.00 0.00 73 1007.4
20260505013029 7 208 17.7 29.0 0.00 0.00 0.00 74 1007.2
20260505011536 6 182 16.1 29.0 0.00 0.00 0.00 76 1007.0
20260505010032 6 179 16.1 24.1 0.00 0.00 0.00 77 1006.9
20260505004544 6 166 17.7 27.4 0.00 0.00 0.00 78 1006.5
20260505003032 6 212 17.7 29.0 0.00 0.00 0.00 80 1006.1
20260505001532 6 204 16.1 27.4 0.00 0.00 0.00 82 1005.8
20260505000047 6 185 16.1 24.1 0.00 0.00 0.00 83 1005.7
20260504234531 6 245 14.5 22.5 0.00 0.00 0.00 83 1005.2
20260504233030 6 245 19.3 27.4 0.00 0.00 0.00 83 1005.1
20260504231531 6 217 17.7 24.1 0.00 0.00 0.00 83 1005.0